Location: Prague
(50.0830°N, 14.4670°E)
Time: 04:20:26
(UTC+02:00)

FO-29 - Pass Details

Date: 07 April 2023
Orbit: 799 x 1322 km, 98.5° (Epoch: 29 May)

Event Time Altitude Azimuth Distance (km) Brightness Sun altitude
Rises 05:40:07 0° 16° (NNE) 4,242 13.4 -8.0°
Reaches altitude 10° 05:43:00 10° 20° (NNE) 3,219 12.8 -7.6°
Maximum altitude 05:50:17 58° 99° (E) 1,322 10.6 -6.5°
Drops below altitude 10° 05:56:43 10° 177° (S) 2,853 11.8 -5.5°
Sets 05:59:07 0° 182° (S) 3,730 12.4 -5.1°
